Location: *
(46.3500°N, 10.9000°E)
Time: 22:58:58
(UTC+00:00)

Explorer 7 - Pass Details

Date: 19 April 2021
Orbit: 484 x 677 km, 50.3° (Epoch: 13 May)

Event Time Altitude Azimuth Distance (km) Brightness Sun altitude
Rises 23:51:08 0° 291° (WNW) 2,805 - -31.6°
Reaches altitude 10° 23:53:21 10° 293° (WNW) 1,935 - -31.5°
Maximum altitude 23:57:49 77° 20° (NNE) 643 - -31.3°
Drops below altitude 10° 00:02:32 10° 107° (ESE) 2,044 - -31.2°
Sets 00:04:56 0° 109° (ESE) 2,976 - -31.1°
